Location: La Chapelle
(48.3135°N, 1.3085°W)
Time: 10:10:18
(UTC+00:00)

Okean-O - Pass Details

Date: 03 March 2021
Orbit: 638 x 640 km, 98.2° (Epoch: 11 April)

Event Time Altitude Azimuth Distance (km) Brightness Sun altitude
Rises 18:22:20 0° 153° (SSE) 2,935 5.8 -5.7°
Reaches altitude 10° 18:24:33 10° 149° (SSE) 2,030 4.9 -6.1°
Maximum altitude 18:28:53 58° 72° (ENE) 754 2.7 -6.8°
Drops below altitude 10° 18:33:15 10° 353° (N) 2,045 5.3 -7.6°
Sets 18:35:29 0° 350° (N) 2,959 6.2 -7.9°
